This is the latest recevied weather packets stored in our database for station/object VA3BOO. If no packets are shown the sender has not sent any weather packets the latest 1 day(s).
| Time | Temp. | Humidity | Pressure | Rain* | Wind** | Luminosity | Snow |
|---|---|---|---|---|---|---|---|
| 1778106904 | 8.89° C | 80% | 1009.4 hPa | 0 mm | - | 37 W/m² | - |
| 1778106004 | 8.89° C | 80% | 1009.4 hPa | 0 mm | - | 57 W/m² | - |
| 1778099704 | 9.44° C | 77% | 1009 hPa | 0 mm | - | 168 W/m² | - |
| 1778097904 | 9.44° C | 78% | 1009.2 hPa | 0 mm | - | 214 W/m² | - |
| 1778096104 | 9.44° C | 78% | 1009.2 hPa | 0 mm | - | 246 W/m² | - |
| 1778095504 | 8.89° C | 79% | 1009.2 hPa | 0 mm | - | 339 W/m² | - |
| 1778094904 | 8.89° C | 71% | 1009.4 hPa | 0 mm | - | 178 W/m² | - |
| 1778093704 | 8.33° C | 77% | 1009.5 hPa | 0 mm | - | 113 W/m² | - |
| 1778091904 | 8.33° C | 81% | 1009.2 hPa | 0 mm | - | 108 W/m² | - |
| 1778091304 | 8.33° C | 81% | 1009.2 hPa | 0 mm | - | 128 W/m² | - |
| 1778091004 | 7.78° C | 81% | 1009.1 hPa | 0 mm | - | 162 W/m² | - |
| 1778090704 | 7.78° C | 81% | 1009.2 hPa | 0 mm | - | 156 W/m² | - |
| 1778089504 | 8.33° C | 83% | 1009 hPa | 0 mm | - | 130 W/m² | - |
| 1778089204 | 7.78° C | 83% | 1009.1 hPa | 0 mm | - | 137 W/m² | - |
| 1778088904 | 7.78° C | 85% | 1009.1 hPa | 0 mm | - | 158 W/m² | - |
| 1778088304 | 7.78° C | 84% | 1009.1 hPa | 0 mm | - | 177 W/m² | - |
| 1778088004 | 7.22° C | 85% | 1009.1 hPa | 0 mm | - | 137 W/m² | - |
| 1778087704 | 7.22° C | 84% | 1009 hPa | 0 mm | - | 103 W/m² | - |
| 1778087104 | 7.78° C | 84% | 1008.9 hPa | 0 mm | - | 101 W/m² | - |
| 1778085904 | 7.22° C | 85% | 1009 hPa | 0 mm | - | 203 W/m² | - |
| 1778085304 | 7.22° C | 86% | 1009 hPa | 0 mm | - | 186 W/m² | - |
| 1778085004 | 7.22° C | 86% | 1009 hPa | 0 mm | - | 162 W/m² | - |
| 1778084404 | 7.22° C | 88% | 1009.1 hPa | 0 mm | - | 274 W/m² | - |
| 1778084104 | 7.22° C | 87% | 1009.2 hPa | 0 mm | - | 238 W/m² | - |
| 1778083204 | 7.22° C | 89% | 1009.6 hPa | 0 mm | - | 243 W/m² | - |
* Rain latest hour (hover to see other rain measurements)
** Current wind speed in m/s (hover to see current wind gust speed)